FW3788 Weather Reports


Display with metric or nautical units.
time (UTC)temp
F
wind
direction
speed
MPH
gust
MPH
rain 1hr
in
rain 24hr
in
rain mn
in
humidity
%
barometer
mb
20260903213018 78 166 4.0 10.0 0.00 0.00 0.00 26 1010.6
20260903212517 76 124 0.0 14.0 0.00 0.00 0.00 28 1010.6
20260903212015 76 170 8.0 14.0 0.00 0.00 0.00 28 1010.7
20260903211538 76 160 1.0 14.0 0.00 0.00 0.00 27 1010.7
20260903211015 76 163 3.0 14.0 0.00 0.00 0.00 27 1010.8
20260903210515 76 163 6.0 13.0 0.00 0.00 0.00 27 1010.8
20260903210121 76 163 0.0 12.0 0.00 0.00 0.00 28 1010.8
20260903205515 76 166 9.0 12.0 0.00 0.00 0.00 27 1010.9
20260903205014 75 125 0.0 13.0 0.00 0.00 0.00 29 1010.9
20260903204515 75 189 7.0 13.0 0.00 0.00 0.00 29 1011.1
20260903204018 75 171 6.0 15.0 0.00 0.00 0.00 30 1011.0
20260903203514 75 160 9.0 15.0 0.00 0.00 0.00 29 1011.0
20260903203015 76 162 3.0 14.0 0.00 0.00 0.00 29 1011.0
20260903202515 75 123 3.0 14.0 0.00 0.00 0.00 30 1011.0
20260903202015 75 181 6.0 16.0 0.00 0.00 0.00 30 1011.1
20260903201514 75 161 3.0 16.0 0.00 0.00 0.00 31 1011.1
20260903201016 75 204 11.0 16.0 0.00 0.00 0.00 31 1011.2
20260903200515 75 164 6.0 14.0 0.00 0.00 0.00 31 1011.2
20260903200015 75 181 8.0 14.0 0.00 0.00 0.00 31 1011.2
20260903195514 76 181 5.0 15.0 0.00 0.00 0.00 30 1011.4
20260903195016 75 188 2.0 13.0 0.00 0.00 0.00 31 1011.3
20260903194517 74 158 6.0 13.0 0.00 0.00 0.00 30 1011.5
20260903194014 75 163 2.0 11.0 0.00 0.00 0.00 30 1011.6
20260903193515 75 155 6.0 11.0 0.00 0.00 0.00 29 1011.6
20260903193015 74 185 4.0 10.0 0.00 0.00 0.00 29 1011.7
20260903192515 73 139 2.0 11.0 0.00 0.00 0.00 30 1011.7
20260903192015 74 154 5.0 12.0 0.00 0.00 0.00 30 1011.9
20260903191518 74 193 6.0 13.0 0.00 0.00 0.00 29 1011.9
20260903191015 73 176 4.0 13.0 0.00 0.00 0.00 31 1012.0
20260903190515 72 164 1.0 13.0 0.00 0.00 0.00 31 1012.0
20260903190015 73 181 3.0 15.0 0.00 0.00 0.00 31 1012.1
20260903185515 72 162 8.0 13.0 0.00 0.00 0.00 33 1012.1
20260903185015 73 181 7.0 12.0 0.00 0.00 0.00 33 1012.2
20260903184515 72 164 5.0 13.0 0.00 0.00 0.00 34 1012.2
20260903184015 73 181 8.0 13.0 0.00 0.00 0.00 33 1012.3
20260903183515 73 126 0.0 12.0 0.00 0.00 0.00 33 1012.3
20260903183016 72 177 6.0 14.0 0.00 0.00 0.00 36 1012.4
20260903182516 71 173 8.0 14.0 0.00 0.00 0.00 37 1012.4
20260903182015 72 177 6.0 12.0 0.00 0.00 0.00 36 1012.4
20260903181518 71 193 0.0 11.0 0.00 0.00 0.00 38 1012.5
20260903181018 71 162 4.0 13.0 0.00 0.00 0.00 40 1012.6
20260903180515 70 177 6.0 13.0 0.00 0.00 0.00 40 1012.6
20260903180018 70 152 4.0 11.0 0.00 0.00 0.00 40 1012.6
20260903175517 71 191 5.0 10.0 0.00 0.00 0.00 38 1012.6
20260903175015 71 185 2.0 10.0 0.00 0.00 0.00 39 1012.7
20260903174534 72 172 4.0 9.0 0.00 0.00 0.00 39 1012.7
20260903174014 70 162 2.0 12.0 0.00 0.00 0.00 41 1012.7
20260903173515 71 169 3.0 9.0 0.00 0.00 0.00 40 1012.8
20260903173023 71 191 2.0 9.0 0.00 0.00 0.00 40 1012.8
20260903172515 70 195 0.0 8.0 0.00 0.00 0.00 41 1012.9
20260903172016 70 196 0.0 10.0 0.00 0.00 0.00 42 1012.9
20260903171614 70 188 1.0 12.0 0.00 0.00 0.00 43 1012.9
20260903171015 69 187 7.0 12.0 0.00 0.00 0.00 44 1013.0
20260903170517 70 197 3.0 11.0 0.00 0.00 0.00 43 1012.9
20260903170016 69 195 4.0 11.0 0.00 0.00 0.00 45 1012.9
20260903165515 70 189 0.0 9.0 0.00 0.00 0.00 44 1012.8
20260903165015 70 190 1.0 9.0 0.00 0.00 0.00 43 1012.9
20260903164515 71 184 2.0 9.0 0.00 0.00 0.00 43 1012.9
20260903164115 70 326 0.0 0.0 0.00 0.00 0.00 44 1012.9
20260903163517 69 326 0.0 0.0 0.00 0.00 0.00 47 1012.8
20260903163121 68 326 0.0 0.0 0.00 0.00 0.00 50 1012.8
20260903162515 66 326 0.0 0.0 0.00 0.00 0.00 51 1012.8
20260903162016 66 326 0.0 0.0 0.00 0.00 0.00 51 1012.9
20260903161522 65 326 0.0 0.0 0.00 0.00 0.00 51 1012.9
20260903161017 64 326 0.0 0.0 0.00 0.00 0.00 53 1013.0
20260903160516 64 326 0.0 0.0 0.00 0.00 0.00 53 1013.1
20260903160016 63 326 0.0 0.0 0.00 0.00 0.00 57 1013.2
20260903155515 63 326 0.0 0.0 0.00 0.00 0.00 56 1013.3
20260903155015 62 326 0.0 0.0 0.00 0.00 0.00 58 1013.3
20260903154515 62 326 0.0 0.0 0.00 0.00 0.00 59 1013.4
20260903154015 61 326 0.0 0.0 0.00 0.00 0.00 61 1013.4
20260903153516 60 326 0.0 0.0 0.00 0.00 0.00 65 1013.5
20260903153016 59 326 0.0 0.0 0.00 0.00 0.00 68 1013.6
20260903152516 58 326 0.0 0.0 0.00 0.00 0.00 71 1013.6
20260903152117 57 326 0.0 0.0 0.00 0.00 0.00 72 1013.7
20260903151516 56 326 0.0 0.0 0.00 0.00 0.00 74 1013.8
20260903151015 55 326 0.0 0.0 0.00 0.00 0.00 76 1013.8
20260903150518 54 326 0.0 0.0 0.00 0.00 0.00 79 1013.8
20260903150023 53 326 0.0 0.0 0.00 0.00 0.00 80 1013.8
20260903145518 52 326 0.0 0.0 0.00 0.00 0.00 82 1013.8
20260903145019 51 326 0.0 0.0 0.00 0.00 0.00 83 1013.8
20260903144515 51 326 0.0 0.0 0.00 0.00 0.00 84 1013.8
20260903144018 50 326 0.0 0.0 0.00 0.00 0.00 85 1013.8
20260903143515 49 326 0.0 0.0 0.00 0.00 0.00 86 1013.8
20260903143015 49 326 0.0 0.0 0.00 0.00 0.00 86 1013.8
20260903142515 48 326 0.0 0.0 0.00 0.00 0.00 87 1013.8
20260903142016 48 326 0.0 0.0 0.00 0.00 0.00 86 1013.8
20260903141519 48 326 0.0 0.0 0.00 0.00 0.00 86 1013.7
20260903141015 48 326 0.0 0.0 0.00 0.00 0.00 87 1013.7
20260903140624 48 326 0.0 0.0 0.00 0.00 0.00 87 1013.6
20260903134019 47 326 0.0 0.0 0.00 0.00 0.00 86 1013.6
20260903133515 47 326 0.0 0.0 0.00 0.00 0.00 86 1013.5
20260903133017 47 326 0.0 0.0 0.00 0.00 0.00 86 1013.4
20260903132516 47 326 0.0 0.0 0.00 0.00 0.00 86 1013.4
20260903132113 47 326 0.0 0.0 0.00 0.00 0.00 86 1013.5
20260903054517 53 326 0.0 0.0 0.00 0.00 0.00 72 1014.4
20260903054016 54 326 0.0 0.0 0.00 0.00 0.00 71 1014.4
20260903053516 54 326 0.0 0.0 0.00 0.00 0.00 69 1014.4
20260903053016 55 326 0.0 0.0 0.00 0.00 0.00 70 1014.4
20260903052516 55 326 0.0 0.0 0.00 0.00 0.00 70 1014.5
20260903052017 55 326 0.0 0.0 0.00 0.00 0.00 70 1014.4
20260903051517 55 326 0.0 0.0 0.00 0.00 0.00 69 1014.5
20260903051015 55 326 0.0 0.0 0.00 0.00 0.00 69 1014.5
20260903050516 55 326 0.0 0.0 0.00 0.00 0.00 69 1014.5
20260903050016 56 326 0.0 0.0 0.00 0.00 0.00 68 1014.5
20260903045517 56 326 0.0 0.0 0.00 0.00 0.00 68 1014.5
20260903045016 56 326 0.0 0.0 0.00 0.00 0.00 67 1014.5
20260903044517 57 326 0.0 0.0 0.00 0.00 0.00 67 1014.6
20260903044016 57 326 0.0 0.0 0.00 0.00 0.00 67 1014.5
20260903043517 57 326 0.0 0.0 0.00 0.00 0.00 66 1014.6
20260903043016 57 326 0.0 0.0 0.00 0.00 0.00 66 1014.5
20260903042516 58 326 0.0 0.0 0.00 0.00 0.00 66 1014.4
20260903042017 58 326 0.0 0.0 0.00 0.00 0.00 66 1014.4
20260903041520 58 326 0.0 0.0 0.00 0.00 0.00 65 1014.4
20260903041016 59 326 0.0 0.0 0.00 0.00 0.00 66 1014.4
20260903040516 59 326 0.0 0.0 0.00 0.00 0.00 66 1014.2
20260903040017 59 326 0.0 0.0 0.00 0.00 0.00 66 1014.2
20260903035519 59 326 0.0 0.0 0.00 0.00 0.00 65 1014.1
20260903035016 59 326 0.0 4.0 0.00 0.00 0.00 65 1014.1
20260903034518 59 326 0.0 5.0 0.00 0.00 0.00 65 1014.0
20260903034016 60 326 0.0 5.0 0.00 0.00 0.00 64 1014.0
20260903033521 60 326 2.0 6.0 0.00 0.00 0.00 64 1014.0
20260903033016 60 326 0.0 6.0 0.00 0.00 0.00 63 1013.8
20260903032516 61 326 2.0 6.0 0.00 0.00 0.00 63 1013.7
20260903032016 61 325 3.0 6.0 0.00 0.00 0.00 62 1013.6
20260903031517 61 325 0.0 7.0 0.00 0.00 0.00 62 1013.6
20260903031017 61 325 4.0 7.0 0.00 0.00 0.00 61 1013.5
20260903030516 62 325 3.0 7.0 0.00 0.00 0.00 61 1013.5
20260903030021 62 323 0.0 7.0 0.00 0.00 0.00 61 1013.4
20260903025519 62 323 3.0 8.0 0.00 0.00 0.00 61 1013.4
20260903025016 63 328 3.0 9.0 0.00 0.00 0.00 60 1013.4
20260903024516 63 321 4.0 11.0 0.00 0.00 0.00 60 1013.3
20260903024016 64 322 4.0 11.0 0.00 0.00 0.00 59 1013.3
20260903023516 64 318 3.0 8.0 0.00 0.00 0.00 58 1013.2
20260903023016 64 301 3.0 8.0 0.00 0.00 0.00 58 1013.3
20260903022517 65 303 0.0 5.0 0.00 0.00 0.00 57 1013.2
20260903022016 65 303 2.0 5.0 0.00 0.00 0.00 57 1013.3
20260903021516 66 310 1.0 8.0 0.00 0.00 0.00 56 1013.2
20260903021017 66 293 0.0 9.0 0.00 0.00 0.00 55 1013.2
20260903020516 67 314 0.0 9.0 0.00 0.00 0.00 54 1013.1
20260903020016 67 298 0.0 10.0 0.00 0.00 0.00 53 1013.2
20260903015516 67 305 3.0 10.0 0.00 0.00 0.00 52 1013.2
20260903015015 68 326 3.0 10.0 0.00 0.00 0.00 52 1013.2
20260903014516 69 308 5.0 10.0 0.00 0.00 0.00 50 1013.2
20260903014018 69 272 1.0 8.0 0.00 0.00 0.00 49 1013.3
20260903013517 70 323 4.0 11.0 0.00 0.00 0.00 48 1013.3
20260903013029 70 325 3.0 11.0 0.00 0.00 0.00 47 1013.3
20260903012517 71 322 2.0 8.0 0.00 0.00 0.00 46 1013.3
20260903012016 71 308 2.0 11.0 0.00 0.00 0.00 46 1013.4
20260903011517 72 303 3.0 12.0 0.00 0.00 0.00 45 1013.3
20260903011016 72 337 3.0 12.0 0.00 0.00 0.00 44 1013.3
20260903010517 73 320 6.0 12.0 0.00 0.00 0.00 42 1013.2
20260903010029 74 282 2.0 9.0 0.00 0.00 0.00 41 1013.3
20260903005516 74 293 2.0 8.0 0.00 0.00 0.00 40 1013.2
20260903005017 74 299 2.0 8.0 0.00 0.00 0.00 39 1013.2
20260903004616 74 328 5.0 9.0 0.00 0.00 0.00 38 1013.2
20260903004016 75 322 0.0 6.0 0.00 0.00 0.00 38 1013.1
20260903003516 76 51 3.0 7.0 0.00 0.00 0.00 35 1013.2
20260903003116 76 82 0.0 7.0 0.00 0.00 0.00 34 1013.2
20260903002517 76 206 0.0 5.0 0.00 0.00 0.00 36 1013.1
20260903001519 76 346 0.0 6.0 0.00 0.00 0.00 35 1013.3
20260903001016 76 315 0.0 6.0 0.00 0.00 0.00 35 1013.3
20260903000516 75 314 1.0 6.0 0.00 0.00 0.00 34 1013.3
20260903000017 74 304 0.0 5.0 0.00 0.00 0.00 36 1013.4
20260902235517 74 298 1.0 5.0 0.00 0.00 0.00 36 1013.4
20260902235017 75 340 0.0 1.0 0.00 0.00 0.00 36 1013.4
20260902234522 75 340 0.0 0.0 0.00 0.00 0.00 35 1013.5
20260902234016 76 340 0.0 0.0 0.00 0.00 0.00 34 1013.5
20260902233516 76 340 0.0 4.0 0.00 0.00 0.00 34 1013.6
20260902233017 76 339 1.0 8.0 0.00 0.00 0.00 33 1013.6
20260902232519 76 297 3.0 8.0 0.00 0.00 0.00 34 1013.6
20260902232016 76 303 0.0 7.0 0.00 0.00 0.00 34 1013.7
20260902231523 76 317 1.0 7.0 0.00 0.00 0.00 34 1013.7
20260902231016 76 326 0.0 8.0 0.00 0.00 0.00 35 1013.7
20260902230516 75 324 3.0 10.0 0.00 0.00 0.00 35 1013.8
20260902230016 75 335 1.0 10.0 0.00 0.00 0.00 36 1013.8
20260902225516 75 283 3.0 7.0 0.00 0.00 0.00 35 1013.8
20260902225017 75 319 0.0 9.0 0.00 0.00 0.00 36 1014.1
20260902224529 74 340 4.0 9.0 0.00 0.00 0.00 36 1014.1
20260902224024 74 299 2.0 9.0 0.00 0.00 0.00 38 1014.2
20260902223516 75 304 3.0 9.0 0.00 0.00 0.00 36 1014.2
20260902223017 75 294 0.0 7.0 0.00 0.00 0.00 36 1014.2
20260902222517 74 306 0.0 8.0 0.00 0.00 0.00 37 1014.2
20260902222018 73 298 2.0 9.0 0.00 0.00 0.00 39 1014.3
20260902221521 73 310 3.0 9.0 0.00 0.00 0.00 38 1014.3
20260902221017 74 295 2.0 9.0 0.00 0.00 0.00 37 1014.3
20260902220516 74 297 0.0 7.0 0.00 0.00 0.00 36 1014.4
20260902220040 74 294 1.0 10.0 0.00 0.00 0.00 36 1014.4
20260902215516 74 261 1.0 13.0 0.00 0.00 0.00 36 1014.5
20260902215016 75 289 1.0 13.0 0.00 0.00 0.00 35 1014.5
20260902214517 75 296 1.0 10.0 0.00 0.00 0.00 34 1014.5
20260902214016 76 170 0.0 15.0 0.00 0.00 0.00 30 1014.6
20260902213517 75 165 2.0 15.0 0.00 0.00 0.00 29 1014.7